COSMOS 2251 DEB, 40239

Orbit data source: Space-Track

COSMOS 2251 DEB, 40239 is space debris in LEO originally from a launch on Wed, 16 Jun 1993 UTC launched from the Plesetsk Missile And Space Complex (PKMTR). The debris from Iridium 33, an American commercial communications satellite, has been tracked extensively since its accidental collision with the defunct Russian satellite Cosmos 2251 in 2009. This event, occurring at high speed in low Earth orbit (LEO), generated thousands of pieces of space debris, significantly increasing the risk of further collisions. The Iridium 33 debris cloud has impacted space traffic management and orbital debris mitigation strategies, making it a subject of ongoing study in space situational awareness.

Loading next visibility...
Identifier
40239, 1993-036BVU
Orbit
LEO
Country
Flag of CISCIS
Related business
Manufacturer
Unknown
Mission
Spacecraft
Bus & Motor
Unknown
Mass
Unknown
Launch date (UTC)
1993-06-16 (32 years ago)
Launch vehicle
Unknown
Launch site
Plesetsk Missile And Space Complex (PKMTR)
Object type
Payload
Rocket body
Debris
Shape & HBR
Unknown shape, 0.1 m
Radar Cross Section
Small (<0.1 m²)

Expand to show TLE details & history
Last TLE update: 1 day ago

TLE from 1 day ago
0 COSMOS 2251 DEB
1 40239U 93036BVU 25298.94528941  .00002114  00000-0  40889-3 0  9997
2 40239  74.0334   7.3459 0084691 132.0021  44.0152 14.61730680589123
Epoch: 2025-10-25T22:41Z
TLE epoch observation values (Epoch: 2025-10-25T22:41:13.005Z)
Latitude
3.08257°
Longitude
171.59508°
Altitude
647.091 km
Speed
7.557 km/s
True Right ascension
12h 25m 52s
True Declination
3° 03' 50"
Sunlit
Object was in daylight at epoch
Visualization orbit readout
Latitude
Unknown
Longitude
Unknown
Altitude
Unknown
Speed
Unknown
Apparent Right ascension
Unknown
Apparent Declination
Unknown
Sunlit
N/A
Visualization observer readout
Local Sidereal Time
03:00:46
Azimuth
Unknown
Elevation
Unknown
Doppler factor
Unknown
Orbital elements
Apogee altitude
745.007 km
Perigee altitude
625.367 km
Semi-major axis
7,063.324 km
Eccentricity
0.00847
Inclination
74.0334°
RAAN
7.3459°
Arg. of periapsis
132.0021°
True anomaly
44.6947°
Mean anomaly
44.0152°
Eccentric anomaly
44.35443°
Mean motion
3.6562 °/min
Orbital period
98.46 mins
BSTAR
0.00040889
Loading maneuver chart data...
Computing Atmospheric mass density...

Documentation

Showing up to 5 results
|